www.pogodaiklimat.ru

Погода и климат >> Архив погоды >> Канада >> Muskoka Awos


ПОГОДА в Muskoka Awos

  • Прогноз погоды в Muskoka Awos
  • Монитор погоды в Muskoka Awos
  • Климат города

АРХИВ ПОГОДЫ в Muskoka Awos

Время (UTC), дата Ветер
(напр.,м/с)
 
Видим.   Явления Облачность Т
(С)
Тd
(С)
f
(%)
Тe
(С)
Тes
(С)
Комфортность P
(гПа)
Po
(гПа)
Тmin
(С)
Tmax
(С)
R
(мм)
R24
(мм)
S
(см)
00 7.12 СЗ 6 16 км 5/5 300 м
[]
-4.8 -7.1 84 -13 -13 1017.8 982.7 -5.0 -0.6
03 7.12 СЗ 5 16 км 9/9 1500 м
[]
-8.5 -10.7 84 -16 -16 1020.8 985.5
06 7.12 С 3 16 км слаб. снег 10/10 300 м
[]
-11.8 -14.3 82 -18 -18 1024.2 988.7 -11.8 -0.6 23
09 7.12 С 3 16 км ясно -15.2 -17.5 83 -21 -21 1027.6 991.8
12 7.12 С 2 16 км 10/10 300 м
[]
-16.6 -18.7 84 -22 -22 1029.4 993.4 -17.6 -0.6
15 7.12 СЗ 2 16 км ясно -16.6 -20.7 70 -22 -20 1032.7 996.4
18 7.12 С 2 16 км ясно -11.9 -18.5 58 -16 -14 1031.3 995.1 -18.3 -11.8
21 7.12 СЗ 1 16 км 5/5 1000 м
[]
-10.7 -17.3 58 -11 -11 1031.4 995.1
00 8.12 Ю 1 16 км 10/10 1000 м
[]
-16.1 -17.9 86 -17 -17 1031.8 995.2 -18.3 -10.2
03 8.12 ЮВ 2 16 км 10/10 1500 м
[]
-12.8 -15.9 78 -18 -18 1030.8 994.4
06 8.12 В 2 16 км слаб. снег 10/10 1500 м
[]
-11.8 -15.2 76 -16 -16 1029.4 993.3 -18.3 -10.2
09 8.12 В 2 16 км слаб. снег 10/10 1500 м
[]
-11.1 -13.0 86 -16 -16 1029.1 993.1
12 8.12 ЮВ 1 16 км 10/10 300 м
[]
-10.6 -12.4 87 -13 -13 1030.0 993.7 -16.4 -10.2
15 8.12 СЗ 1 8000 м слаб. снег 10/10 600 м
[]
-9.0 -10.8 87 -11 -11 1031.8 995.7
18 8.12 З 4 16 км 9/9 1000 м
[]
-3.9 -9.2 67 -10 -10 1030.6 994.8 -17.3 -3.9
21 8.12 СЗ 4 16 км ясно -3.1 -8.0 69 -9 -9 1030.1 994.3
00 9.12 Ю 2 16 км слаб. снег 10/10 1000 м
[]
-5.3 -6.6 91 -9 -9 1031.2 995.3 -11.8 -2.9
03 9.12 Ю 3 16 км слаб. снег 10/10 300 м
[]
-3.5 -5.2 88 -8 -8 1031.0 995.3
06 9.12 ЮЗ 4 16 км слаб. снег 10/10 600 м
[]
-2.8 -5.6 81 -9 -9 1029.7 994.2 -11.8 -2.6 21
09 9.12 Ю 5 16 км 10/10 600 м
[]
-3.8 -6.8 80 -10 -10 1027.9 992.5
12 9.12 Ю 6 16 км 10/10 600 м
[]
-4.4 -7.7 78 -12 -12 1026.0 990.6 -5.6 -2.6
15 9.12 ЮЗ 6 16 км 10/10 600 м
[]
-3.3 -6.3 80 -10 -10 1024.5 989.2
18 9.12 ЮЗ 5 16 км 10/10 300 м
[]
-1.6 -4.4 81 -8 -8 1022.2 987.1 -6.3 -1.6
21 9.12 З 6 16 км 10/10 300 м
[]
-1.0 -3.7 82 -8 -8 1021.8 986.7
00 10.12 СЗ 3 16 км 10/10 300 м
[]
-0.8 -4.2 78 -6 -6 1022.1 987.0 -4.7 -0.8
03 10.12 СЗ 4 16 км 10/10 600 м
[]
-1.7 -4.4 82 -7 -7 1022.1 987.0
06 10.12 СЗ 3 16 км 10/10 600 м
[]
-2.3 -6.3 74 -7 -7 1021.7 986.6 -4.7 -0.8 19
09 10.12 С 2 16 км 10/10 600 м
[]
-4.2 -7.0 81 -8 -8 1022.1 987.0
12 10.12 С 1 16 км 10/10 600 м
[]
-6.6 -9.5 80 -9 -9 1022.7 987.5 -6.6 -0.8
15 10.12 ЮВ 2 16 км 10/10 600 м
[]
-5.7 -9.6 74 -9 -9 1024.1 988.8
18 10.12 ЮВ 1 16 км 10/10 600 м
[]
-3.4 -9.3 64 -4 -4 1022.4 987.2 -8.1 -2.2
21 10.12 ЮВ 3 16 км 10/10 600 м
[]
-2.8 -7.2 72 -7 -7 1021.3 986.1
00 11.12 ЮВ 3 16 км 10/10 300 м
[]
-3.0 -5.4 83 -8 -8 1020.2 985.0 -8.1 -2.7
03 11.12 Ю 2 14 км 10/10 600 м
[]
-2.7 -4.4 88 -7 -7 1019.0 983.8
06 11.12 ЮЗ 3 16 км 10/10 300 м
[]
-2.4 -5.9 77 -7 -7 1017.8 982.8 -8.1 -2.1
09 11.12 Ю 5 6000 м слаб. снег 10/10 300 м
[]
-3.3 -6.0 82 -10 -10 1016.6 981.6
12 11.12 Ю 5 6000 м дымка 10/10 300 м
[]
-3.7 -5.7 86 -10 -10 1015.6 980.6 -3.7 -2.1
15 11.12 Ю 4 3200 м слаб. снег 10/10 200 м
[]
-3.8 -4.9 92 -10 -10 1014.9 980.0
18 11.12 Ю 3 2800 м слаб. снег 10/10 200 м
[]
-3.5 -4.6 92 -9 -9 1013.0 978.1 -3.8 -2.4
21 11.12 Ю 3 1600 м слаб. снег 10/10 200 м
[]
-3.1 -3.9 94 -8 -8 1013.1 978.2
00 12.12 СЗ 1 2800 м дымка 10/10 100 м
[]
-3.2 -3.8 96 -6 -6 1014.5 979.6 -3.8 -3.0
03 12.12 СЗ 4 4000 м дымка 10/10 200 м
[]
-3.7 -4.8 92 -10 -10 1016.1 981.1
06 12.12 СЗ 1 4800 м дымка ясно -6.8 -7.4 95 -9 -9 1017.7 982.5 -7.2 -2.4
09 12.12 С 1 12 км 10/10 300 м
[]
-4.5 -5.5 93 -7 -7 1019.0 983.9
12 12.12 Ю 1 11 км 10/10 300 м
[]
-9.1 -10.2 92 -12 -12 1020.5 985.1 -10.9 -2.4
15 12.12 В 2 16 км 5/5 300 м
[]
-4.3 -5.2 93 -9 -8 1020.8 985.6
18 12.12 В 2 16 км 9/9 300 м
[]
-3.0 -6.0 80 -7 -7 1020.1 984.9 -10.9 -2.9
21 12.12 В 3 16 км 10/10 300 м
[]
-3.1 -5.7 82 -8 -8 1019.4 984.3
00 13.12 В 4 16 км 10/10 300 м
[]
-4.4 -6.6 85 -10 -10 1020.7 985.3 -10.9 -2.6
03 13.12 В 4 16 км 10/10 300 м
[]
-5.3 -7.4 85 -11 -11 1020.9 985.6
06 13.12 В 3 16 км 10/10 300 м
[]
-5.9 -9.3 77 -11 -11 1020.7 985.5 -10.9 -2.6 4
09 13.12 В 3 16 км 10/10 300 м
[]
-6.2 -8.6 83 -12 -12 1021.1 985.8
12 13.12 В 3 16 км 10/10 300 м
[]
-5.9 -8.0 85 -11 -11 1022.4 987.1 -6.3 -2.6
15 13.12 ЮВ 3 16 км 10/10 300 м
[]
-5.1 -7.7 82 -11 -11 1024.7 989.3
18 13.12 В 3 11 км 10/10 200 м
[]
-3.8 -5.7 87 -9 -9 1024.7 989.3 -6.3 -3.8
21 13.12 ЮВ 4 8000 м дымка 10/10 200 м
[]
-2.4 -4.1 88 -8 -8 1025.6 990.2

 

Местоположение метеостанции Muskoka Awos (Канада): широта 44.97 долгота -79.30 высота над уровнем моря 282 м.

В архиве по умолчанию представлена погода в Muskoka Awos за последнюю неделю. Архивные данные за месяц целиком и за предыдущие месяцы, начиная с января 2011 года, Вы можете получить, выбрав интересующий диапазон дат из раскрывающегося списка и нажав кнопку "Ввод!".


*Определитесь, кто Вы:
робот инопланетянин человек

Внимание! Время в таблицах - всемирное. Для получения местного времени необходимо прибавить поправку, которая в Muskoka Awos равна -5 ч.

Смотрите также архив погоды в соседних городах и на ближайших метеорологических станциях:

Погода в Beatrice Climate (Канада) (15 км)
Погода в Beausoleil Isl (aut) (Канада) (46 км)
Погода в Lagoon City (Канада) (49 км)
Погода в Barrie-oro (Канада) (59 км)
Погода в Parry Sound (Канада) (70 км)
Погода в Barrie (Канада) (76 км)
Погода в Wester Island (Канада) (84 км)
Погода в Collingwood (Канада) (89 км)
Погода в Egbert (Канада) (91 км)
Погода в Borden (Канада) (94 км)

Пояснения к столбцам:

Ветер - указаны скорость ветра в м/с - средняя за 10 мин, порывы в срок и между сроками (в фигурных скобках) и направление, откуда дует ветер: С - северный, СВ - северо-восточный, В - восточный, ЮВ - юго-восточный, Ю - южный, ЮЗ - юго-западный, З - западный, СЗ - северо-западный.
Видимость - горизонтальная дальность видимости в метрах или километрах. При видимости от 1 до 10 км при отсутствии осадков обычно наблюдается дымка, при ухудшении видимости до 1 км и менее - туман. В сухую погоду видимость может ухудшаться дымом, пылью или мглою.
Явления - указаны атмосферные явления, наблюдавшиеся в срок или в последний час перед сроком; фигурными скобками обозначены явления, наблюдавшиеся между сроками (за 1-3 часа до срока); квадратными скобками обозначены град или гололедные отложения с указанием их диаметра в мм.
Облачность - указаны через наклонную черту общая и нижняя облачность в баллах и высота нижней границы облаков в метрах; квадратными скобками обозначены формы облаков: Ci - перистые, Cs - перисто-слоистые, Cc - перисто-кучевые, Ac - высококучевые, As - высокослоистые, Sc - слоисто-кучевые, Ns - слоисто-дождевые, Cu - кучевые, Cb - кучево-дождевые. Подробнее классификацию облаков см. в Атласе облаков (PDF).
T - Температура воздуха - температура, измеренная на высоте 2 м над землей.
Td - Температура точки росы - температура, при понижении до которой содержащийся в воздухе водяной пар достигнет насыщения.
f - Относительная влажность воздуха - влажноcть воздуха, измеренная на высоте 2 м над землей.
Te - Эффективная температура - температура, которую ощущает одетый по сезону человек в тени. Характеристика душности погоды. При расчете учитывается влияние влажности воздуха и скорости ветра на теплоощущения человека.
Tes - Эффективная температура на солнце - температура, которую ощущает человек, с поправкой на солнечный нагрев. Характеристика знойности погоды. Зависит от высоты солнца над горизонтом, облачности и скорости ветра. Ночью, в пасмурную погоду, а также при ветре 12 м/с и более поправка равна нулю.
P - Атмосферное давление - приведенное к уровню моря атмосферное давление.
Po - Атмосферное давление - измеренное на уровне метеостанции атмосферное давление.
Tmin - Минимальная температура - минимум температуры воздуха на высоте 2 м над землей.
Tmax - Максимальная температура - максимум температуры воздуха на высоте 2 м над землей.
R - Количество осадков - Количество выпавших осадков за период времени, мм. При наведении курсора мыши на число - период времени, за который выпало указанное количество осадков.
R24 - Количество осадков - Количество выпавших осадков за 24 часа, мм.
S - Снежный покров - Высота снежного покрова, см. При наведении курсора мыши на число - состояние снежного покрова и степень покрытия местности в баллах.